owner,sensor,date,latitude,longitude,vertical_datum,mass_concentration_of_oxygen_in_sea_water,qcFlag 
DISL,ioos:station:DISL:PPTA:1,2013-07-01T00:00:00Z,30.2791,-87.5561,1.299,5.95,1111122 
DISL,ioos:station:DISL:PPTA:1,2013-07-01T00:30:00Z,30.2791,-87.5561,1.278,5.87,1111122 
DISL,ioos:station:DISL:PPTA:1,2013-07-01T01:00:00Z,30.2791,-87.5561,1.253,5.76,1111122 
DISL,ioos:station:DISL:PPTA:1,2013-07-01T01:30:00Z,30.2791,-87.5561,1.298,5.77,1111122 
DISL,ioos:station:DISL:PPTA:1,2013-07-01T02:00:00Z,30.2791,-87.5561,1.307,5.53,1111122 
DISL,ioos:station:DISL:PPTA:1,2013-07-01T02:30:00Z,30.2791,-87.5561,1.276,5.67,1111122 
DISL,ioos:station:DISL:PPTA:1,2013-07-01T03:00:00Z,30.2791,-87.5561,1.32,5.85,1111122 
DISL,ioos:station:DISL:PPTA:1,2013-07-01T03:30:00Z,30.2791,-87.5561,1.291,4.85,1111122 
DISL,ioos:station:DISL:PPTA:1,2013-07-01T04:00:00Z,30.2791,-87.5561,1.317,4.92,1111122 
DISL,ioos:station:DISL:PPTA:1,2013-07-01T04:30:00Z,30.2791,-87.5561,1.343,4.92,1111122 
DISL,ioos:station:DISL:PPTA:1,2013-07-01T05:00:00Z,30.2791,-87.5561,1.328,4.68,1111122 
DISL,ioos:station:DISL:PPTA:1,2013-07-01T05:30:00Z,30.2791,-87.5561,1.36,5.12,1111122 
DISL,ioos:station:DISL:PPTA:1,2013-07-01T06:00:00Z,30.2791,-87.5561,1.341,5.24,1111122 
DISL,ioos:station:DISL:PPTA:1,2013-07-01T06:30:00Z,30.2791,-87.5561,1.387,5.22,1111122 
DISL,ioos:station:DISL:PPTA:1,2013-07-01T07:00:00Z,30.2791,-87.5561,1.394,5.51,1111122 
DISL,ioos:station:DISL:PPTA:1,2013-07-01T07:30:00Z,30.2791,-87.5561,1.398,4.95,1111122 
DISL,ioos:station:DISL:PPTA:1,2013-07-01T08:00:00Z,30.2791,-87.5561,1.419,5.34,1111122 
DISL,ioos:station:DISL:PPTA:1,2013-07-01T08:30:00Z,30.2791,-87.5561,1.423,4.93,1111122 
DISL,ioos:station:DISL:PPTA:1,2013-07-01T09:00:00Z,30.2791,-87.5561,1.436,4.98,1111122 
DISL,ioos:station:DISL:PPTA:1,2013-07-01T09:30:00Z,30.2791,-87.5561,1.454,5.06,1111122 
DISL,ioos:station:DISL:PPTA:1,2013-07-01T10:00:00Z,30.2791,-87.5561,1.442,5.08,1111122 
DISL,ioos:station:DISL:PPTA:1,2013-07-01T10:30:00Z,30.2791,-87.5561,1.456,5.06,1111122 
DISL,ioos:station:DISL:PPTA:1,2013-07-01T11:00:00Z,30.2791,-87.5561,1.45,4.95,1111122 
DISL,ioos:station:DISL:PPTA:1,2013-07-01T11:30:00Z,30.2791,-87.5561,1.459,4.92,1111122 
DISL,ioos:station:DISL:PPTA:1,2013-07-01T12:00:00Z,30.2791,-87.5561,1.475,5.19,1111122 
DISL,ioos:station:DISL:PPTA:1,2013-07-01T12:30:00Z,30.2791,-87.5561,1.449,5.19,1111122 
DISL,ioos:station:DISL:PPTA:1,2013-07-01T13:00:00Z,30.2791,-87.5561,1.479,5.0,1111122 
DISL,ioos:station:DISL:PPTA:1,2013-07-01T13:30:00Z,30.2791,-87.5561,1.447,5.47,1111122 
DISL,ioos:station:DISL:PPTA:1,2013-07-01T14:00:00Z,30.2791,-87.5561,1.439,5.34,1111122 
DISL,ioos:station:DISL:PPTA:1,2013-07-01T14:30:00Z,30.2791,-87.5561,1.441,5.2,1111122 
DISL,ioos:station:DISL:PPTA:1,2013-07-01T15:00:00Z,30.2791,-87.5561,1.424,5.67,1111122 
DISL,ioos:station:DISL:PPTA:1,2013-07-01T15:30:00Z,30.2791,-87.5561,1.411,5.77,1111122 
DISL,ioos:station:DISL:PPTA:1,2013-07-01T16:00:00Z,30.2791,-87.5561,1.406,5.7,1111122 
DISL,ioos:station:DISL:PPTA:1,2013-07-01T16:30:00Z,30.2791,-87.5561,1.397,6.2,1111122 
DISL,ioos:station:DISL:PPTA:1,2013-07-01T17:00:00Z,30.2791,-87.5561,1.382,6.28,1111122 
DISL,ioos:station:DISL:PPTA:1,2013-07-01T17:30:00Z,30.2791,-87.5561,1.375,6.32,1111122 
DISL,ioos:station:DISL:PPTA:1,2013-07-01T18:00:00Z,30.2791,-87.5561,1.369,6.48,1111122 
DISL,ioos:station:DISL:PPTA:1,2013-07-01T18:30:00Z,30.2791,-87.5561,1.38,6.82,1111122 
DISL,ioos:station:DISL:PPTA:1,2013-07-01T19:00:00Z,30.2791,-87.5561,1.344,6.6,1111122 
DISL,ioos:station:DISL:PPTA:1,2013-07-01T19:30:00Z,30.2791,-87.5561,1.337,6.57,1111122 
DISL,ioos:station:DISL:PPTA:1,2013-07-01T20:00:00Z,30.2791,-87.5561,1.305,6.29,1111122 
DISL,ioos:station:DISL:PPTA:1,2013-07-01T20:30:00Z,30.2791,-87.5561,1.293,6.54,1111122 
DISL,ioos:station:DISL:PPTA:1,2013-07-01T21:00:00Z,30.2791,-87.5561,1.277,6.93,1111122 
DISL,ioos:station:DISL:PPTA:1,2013-07-01T21:30:00Z,30.2791,-87.5561,1.276,6.95,1111122 
DISL,ioos:station:DISL:PPTA:1,2013-07-01T22:00:00Z,30.2791,-87.5561,1.285,6.81,1111122 
DISL,ioos:station:DISL:PPTA:1,2013-07-01T22:30:00Z,30.2791,-87.5561,1.257,6.96,1111122 
DISL,ioos:station:DISL:PPTA:1,2013-07-01T23:00:00Z,30.2791,-87.5561,1.26,6.78,1111122 
DISL,ioos:station:DISL:PPTA:1,2013-07-01T23:30:00Z,30.2791,-87.5561,1.226,6.84,1111122 
DISL,ioos:station:DISL:PPTA:1,2013-07-02T00:00:00Z,30.2791,-87.5561,1.254,6.93,1111122 
DISL,ioos:station:DISL:PPTA:1,2013-07-02T00:30:00Z,30.2791,-87.5561,1.267,6.27,1111122 
DISL,ioos:station:DISL:PPTA:1,2013-07-02T01:00:00Z,30.2791,-87.5561,1.271,6.5,1111122 
DISL,ioos:station:DISL:PPTA:1,2013-07-02T01:30:00Z,30.2791,-87.5561,1.288,6.35,1111122 
DISL,ioos:station:DISL:PPTA:1,2013-07-02T02:00:00Z,30.2791,-87.5561,1.293,6.0,1111122 
DISL,ioos:station:DISL:PPTA:1,2013-07-02T02:30:00Z,30.2791,-87.5561,1.277,6.07,1111122 
DISL,ioos:station:DISL:PPTA:1,2013-07-02T03:00:00Z,30.2791,-87.5561,1.307,6.71,1111122 
DISL,ioos:station:DISL:PPTA:1,2013-07-02T03:30:00Z,30.2791,-87.5561,1.306,6.05,1111122 
DISL,ioos:station:DISL:PPTA:1,2013-07-02T04:00:00Z,30.2791,-87.5561,1.288,6.28,1111122 
DISL,ioos:station:DISL:PPTA:1,2013-07-02T04:30:00Z,30.2791,-87.5561,1.307,5.41,1111122 
DISL,ioos:station:DISL:PPTA:1,2013-07-02T05:00:00Z,30.2791,-87.5561,1.313,5.32,1111122 
DISL,ioos:station:DISL:PPTA:1,2013-07-02T05:30:00Z,30.2791,-87.5561,1.337,5.3,1111122 
DISL,ioos:station:DISL:PPTA:1,2013-07-02T06:00:00Z,30.2791,-87.5561,1.332,5.49,1111122 
DISL,ioos:station:DISL:PPTA:1,2013-07-02T06:30:00Z,30.2791,-87.5561,1.366,5.34,1111122 
DISL,ioos:station:DISL:PPTA:1,2013-07-02T07:00:00Z,30.2791,-87.5561,1.378,5.14,1111122 
DISL,ioos:station:DISL:PPTA:1,2013-07-02T07:30:00Z,30.2791,-87.5561,1.392,5.36,1111122 
DISL,ioos:station:DISL:PPTA:1,2013-07-02T08:00:00Z,30.2791,-87.5561,1.412,4.99,1111122 
DISL,ioos:station:DISL:PPTA:1,2013-07-02T08:30:00Z,30.2791,-87.5561,1.405,4.68,1111122 
DISL,ioos:station:DISL:PPTA:1,2013-07-02T09:00:00Z,30.2791,-87.5561,1.418,4.89,1111122 
DISL,ioos:station:DISL:PPTA:1,2013-07-02T09:30:00Z,30.2791,-87.5561,1.438,5.0,1111122 
DISL,ioos:station:DISL:PPTA:1,2013-07-02T10:00:00Z,30.2791,-87.5561,1.43,4.91,1111122 
DISL,ioos:station:DISL:PPTA:1,2013-07-02T10:30:00Z,30.2791,-87.5561,1.447,4.96,1111122 
DISL,ioos:station:DISL:PPTA:1,2013-07-02T11:00:00Z,30.2791,-87.5561,1.456,4.87,1111122 
DISL,ioos:station:DISL:PPTA:1,2013-07-02T11:30:00Z,30.2791,-87.5561,1.467,4.96,1111122 
DISL,ioos:station:DISL:PPTA:1,2013-07-02T12:00:00Z,30.2791,-87.5561,1.457,4.88,1111122 
DISL,ioos:station:DISL:PPTA:1,2013-07-02T12:30:00Z,30.2791,-87.5561,1.462,4.87,1111122 
DISL,ioos:station:DISL:PPTA:1,2013-07-02T13:00:00Z,30.2791,-87.5561,1.456,5.23,1111122 
DISL,ioos:station:DISL:PPTA:1,2013-07-02T13:30:00Z,30.2791,-87.5561,1.454,5.44,1111122 
DISL,ioos:station:DISL:PPTA:1,2013-07-02T14:00:00Z,30.2791,-87.5561,1.45,5.56,1111122 
DISL,ioos:station:DISL:PPTA:1,2013-07-02T14:30:00Z,30.2791,-87.5561,1.399,5.73,1111122 
DISL,ioos:station:DISL:PPTA:1,2013-07-02T15:00:00Z,30.2791,-87.5561,1.419,5.51,1111122 
DISL,ioos:station:DISL:PPTA:1,2013-07-02T15:30:00Z,30.2791,-87.5561,1.412,5.8,1111122 
DISL,ioos:station:DISL:PPTA:1,2013-07-02T16:00:00Z,30.2791,-87.5561,1.395,6.07,1111122 
DISL,ioos:station:DISL:PPTA:1,2013-07-02T16:30:00Z,30.2791,-87.5561,1.373,6.51,1111122 
DISL,ioos:station:DISL:PPTA:1,2013-07-02T17:00:00Z,30.2791,-87.5561,1.347,6.25,1111122 
DISL,ioos:station:DISL:PPTA:1,2013-07-02T17:30:00Z,30.2791,-87.5561,1.344,6.42,1111122 
DISL,ioos:station:DISL:PPTA:1,2013-07-02T18:00:00Z,30.2791,-87.5561,1.343,6.54,1111122 
DISL,ioos:station:DISL:PPTA:1,2013-07-02T18:30:00Z,30.2791,-87.5561,1.316,6.64,1111122 
DISL,ioos:station:DISL:PPTA:1,2013-07-02T19:00:00Z,30.2791,-87.5561,1.299,6.6,1111122 
DISL,ioos:station:DISL:PPTA:1,2013-07-02T19:30:00Z,30.2791,-87.5561,1.293,6.74,1111122 
DISL,ioos:station:DISL:PPTA:1,2013-07-02T20:00:00Z,30.2791,-87.5561,1.284,6.88,1111122 
DISL,ioos:station:DISL:PPTA:1,2013-07-02T20:30:00Z,30.2791,-87.5561,1.277,6.95,1111122 
DISL,ioos:station:DISL:PPTA:1,2013-07-02T21:00:00Z,30.2791,-87.5561,1.265,6.82,1111122 
DISL,ioos:station:DISL:PPTA:1,2013-07-02T21:30:00Z,30.2791,-87.5561,1.26,7.12,1111122 
DISL,ioos:station:DISL:PPTA:1,2013-07-02T22:00:00Z,30.2791,-87.5561,1.246,7.01,1111122 
DISL,ioos:station:DISL:PPTA:1,2013-07-02T22:30:00Z,30.2791,-87.5561,1.244,6.9,1111122 
DISL,ioos:station:DISL:PPTA:1,2013-07-02T23:00:00Z,30.2791,-87.5561,1.249,6.74,1111122 
DISL,ioos:station:DISL:PPTA:1,2013-07-02T23:30:00Z,30.2791,-87.5561,1.252,6.59,1111122 
DISL,ioos:station:DISL:PPTA:1,2013-07-03T00:00:00Z,30.2791,-87.5561,1.233,6.65,1111122 
DISL,ioos:station:DISL:PPTA:1,2013-07-03T00:30:00Z,30.2791,-87.5561,1.255,5.91,1111122 
DISL,ioos:station:DISL:PPTA:1,2013-07-03T01:00:00Z,30.2791,-87.5561,1.229,6.03,1111122 
DISL,ioos:station:DISL:PPTA:1,2013-07-03T01:30:00Z,30.2791,-87.5561,1.229,6.36,1111122 
DISL,ioos:station:DISL:PPTA:1,2013-07-03T02:00:00Z,30.2791,-87.5561,1.26,6.18,1111122 
DISL,ioos:station:DISL:PPTA:1,2013-07-03T02:30:00Z,30.2791,-87.5561,1.259,5.67,1111122 
DISL,ioos:station:DISL:PPTA:1,2013-07-03T03:00:00Z,30.2791,-87.5561,1.257,5.86,1111122 
DISL,ioos:station:DISL:PPTA:1,2013-07-03T03:30:00Z,30.2791,-87.5561,1.261,5.47,1111122 
DISL,ioos:station:DISL:PPTA:1,2013-07-03T04:00:00Z,30.2791,-87.5561,1.262,5.78,1111122 
DISL,ioos:station:DISL:PPTA:1,2013-07-03T04:30:00Z,30.2791,-87.5561,1.275,5.69,1111122 
DISL,ioos:station:DISL:PPTA:1,2013-07-03T05:00:00Z,30.2791,-87.5561,1.27,5.59,1111122 
DISL,ioos:station:DISL:PPTA:1,2013-07-03T05:30:00Z,30.2791,-87.5561,1.28,5.31,1111122 
DISL,ioos:station:DISL:PPTA:1,2013-07-03T06:00:00Z,30.2791,-87.5561,1.304,5.61,1111122 
DISL,ioos:station:DISL:PPTA:1,2013-07-03T06:30:00Z,30.2791,-87.5561,1.33,5.36,1111122 
DISL,ioos:station:DISL:PPTA:1,2013-07-03T07:00:00Z,30.2791,-87.5561,1.347,5.07,1111122 
DISL,ioos:station:DISL:PPTA:1,2013-07-03T07:30:00Z,30.2791,-87.5561,1.359,5.35,1111122 
DISL,ioos:station:DISL:PPTA:1,2013-07-03T08:00:00Z,30.2791,-87.5561,1.384,5.36,1111122 
DISL,ioos:station:DISL:PPTA:1,2013-07-03T08:30:00Z,30.2791,-87.5561,1.411,5.44,1111122 
DISL,ioos:station:DISL:PPTA:1,2013-07-03T09:00:00Z,30.2791,-87.5561,1.421,5.19,1111122 
DISL,ioos:station:DISL:PPTA:1,2013-07-03T09:30:00Z,30.2791,-87.5561,1.439,5.38,1111122 
DISL,ioos:station:DISL:PPTA:1,2013-07-03T10:00:00Z,30.2791,-87.5561,1.448,5.09,1111122 
DISL,ioos:station:DISL:PPTA:1,2013-07-03T10:30:00Z,30.2791,-87.5561,1.458,5.31,1111122 
DISL,ioos:station:DISL:PPTA:1,2013-07-03T11:00:00Z,30.2791,-87.5561,1.448,5.23,1111122 
DISL,ioos:station:DISL:PPTA:1,2013-07-03T11:30:00Z,30.2791,-87.5561,1.492,5.24,1111122 
DISL,ioos:station:DISL:PPTA:1,2013-07-03T12:00:00Z,30.2791,-87.5561,1.482,5.29,1111122 
DISL,ioos:station:DISL:PPTA:1,2013-07-03T12:30:00Z,30.2791,-87.5561,1.5,5.38,1111122 
DISL,ioos:station:DISL:PPTA:1,2013-07-03T13:00:00Z,30.2791,-87.5561,1.467,5.25,1111122 
DISL,ioos:station:DISL:PPTA:1,2013-07-03T13:30:00Z,30.2791,-87.5561,1.499,5.3,1111122 
DISL,ioos:station:DISL:PPTA:1,2013-07-03T14:00:00Z,30.2791,-87.5561,1.508,5.7,1111122 
DISL,ioos:station:DISL:PPTA:1,2013-07-03T14:30:00Z,30.2791,-87.5561,1.493,5.57,1111122 
DISL,ioos:station:DISL:PPTA:1,2013-07-03T15:00:00Z,30.2791,-87.5561,1.48,5.93,1111122 
DISL,ioos:station:DISL:PPTA:1,2013-07-03T15:30:00Z,30.2791,-87.5561,1.442,5.66,1111122 
DISL,ioos:station:DISL:PPTA:1,2013-07-03T16:00:00Z,30.2791,-87.5561,1.462,5.8,1111122 
DISL,ioos:station:DISL:PPTA:1,2013-07-03T16:30:00Z,30.2791,-87.5561,1.445,5.96,1111122 
DISL,ioos:station:DISL:PPTA:1,2013-07-03T17:00:00Z,30.2791,-87.5561,1.407,5.64,1111122 
DISL,ioos:station:DISL:PPTA:1,2013-07-03T17:30:00Z,30.2791,-87.5561,1.439,6.15,1111122 
DISL,ioos:station:DISL:PPTA:1,2013-07-03T18:00:00Z,30.2791,-87.5561,1.459,6.35,1111122 
DISL,ioos:station:DISL:PPTA:1,2013-07-03T18:30:00Z,30.2791,-87.5561,1.411,6.37,1111122 
DISL,ioos:station:DISL:PPTA:1,2013-07-03T19:00:00Z,30.2791,-87.5561,1.439,6.25,1111122 
DISL,ioos:station:DISL:PPTA:1,2013-07-03T19:30:00Z,30.2791,-87.5561,1.383,6.48,1111122 
DISL,ioos:station:DISL:PPTA:1,2013-07-03T20:00:00Z,30.2791,-87.5561,1.377,6.57,1111122 
DISL,ioos:station:DISL:PPTA:1,2013-07-03T20:30:00Z,30.2791,-87.5561,1.375,6.42,1111122 
DISL,ioos:station:DISL:PPTA:1,2013-07-03T21:00:00Z,30.2791,-87.5561,1.383,6.69,1111122 
DISL,ioos:station:DISL:PPTA:1,2013-07-03T21:30:00Z,30.2791,-87.5561,1.362,6.72,1111122 
DISL,ioos:station:DISL:PPTA:1,2013-07-03T22:00:00Z,30.2791,-87.5561,1.357,6.6,1111122 
DISL,ioos:station:DISL:PPTA:1,2013-07-03T22:30:00Z,30.2791,-87.5561,1.336,6.9,1111122 
DISL,ioos:station:DISL:PPTA:1,2013-07-03T23:00:00Z,30.2791,-87.5561,1.331,6.65,1111122 
DISL,ioos:station:DISL:PPTA:1,2013-07-03T23:30:00Z,30.2791,-87.5561,1.341,6.56,1111122 
DISL,ioos:station:DISL:PPTA:1,2013-07-04T00:00:00Z,30.2791,-87.5561,1.351,6.3,1111122 
DISL,ioos:station:DISL:PPTA:1,2013-07-04T00:30:00Z,30.2791,-87.5561,1.356,6.32,1111122 
DISL,ioos:station:DISL:PPTA:1,2013-07-04T01:00:00Z,30.2791,-87.5561,1.359,5.84,1111122 
DISL,ioos:station:DISL:PPTA:1,2013-07-04T01:30:00Z,30.2791,-87.5561,1.347,5.88,1111122 
DISL,ioos:station:DISL:PPTA:1,2013-07-04T02:00:00Z,30.2791,-87.5561,1.342,5.71,1111122 
DISL,ioos:station:DISL:PPTA:1,2013-07-04T02:30:00Z,30.2791,-87.5561,1.382,5.8,1111122 
DISL,ioos:station:DISL:PPTA:1,2013-07-04T03:00:00Z,30.2791,-87.5561,1.365,5.51,1111122 
DISL,ioos:station:DISL:PPTA:1,2013-07-04T03:30:00Z,30.2791,-87.5561,1.398,5.8,1111122 
DISL,ioos:station:DISL:PPTA:1,2013-07-04T04:00:00Z,30.2791,-87.5561,1.419,5.37,1111122 
DISL,ioos:station:DISL:PPTA:1,2013-07-04T04:30:00Z,30.2791,-87.5561,1.466,5.46,1111122 
DISL,ioos:station:DISL:PPTA:1,2013-07-04T05:00:00Z,30.2791,-87.5561,1.405,5.64,1111122 
DISL,ioos:station:DISL:PPTA:1,2013-07-04T05:30:00Z,30.2791,-87.5561,1.431,5.5,1111122 
DISL,ioos:station:DISL:PPTA:1,2013-07-04T06:00:00Z,30.2791,-87.5561,1.472,5.42,1111122 
DISL,ioos:station:DISL:PPTA:1,2013-07-04T06:30:00Z,30.2791,-87.5561,1.475,5.49,1111122 
DISL,ioos:station:DISL:PPTA:1,2013-07-04T07:00:00Z,30.2791,-87.5561,1.515,5.48,1111122 
DISL,ioos:station:DISL:PPTA:1,2013-07-04T07:30:00Z,30.2791,-87.5561,1.486,5.51,1111122 
DISL,ioos:station:DISL:PPTA:1,2013-07-04T08:00:00Z,30.2791,-87.5561,1.515,5.61,1111122 
DISL,ioos:station:DISL:PPTA:1,2013-07-04T08:30:00Z,30.2791,-87.5561,1.533,5.47,1111122 
DISL,ioos:station:DISL:PPTA:1,2013-07-04T09:00:00Z,30.2791,-87.5561,1.567,5.46,1111122 
DISL,ioos:station:DISL:PPTA:1,2013-07-04T09:30:00Z,30.2791,-87.5561,1.58,5.34,1111122 
DISL,ioos:station:DISL:PPTA:1,2013-07-04T10:00:00Z,30.2791,-87.5561,1.594,5.37,1111122 
DISL,ioos:station:DISL:PPTA:1,2013-07-04T10:30:00Z,30.2791,-87.5561,1.598,5.1,1111122 
DISL,ioos:station:DISL:PPTA:1,2013-07-04T11:00:00Z,30.2791,-87.5561,1.611,5.15,1111122 
DISL,ioos:station:DISL:PPTA:1,2013-07-04T11:30:00Z,30.2791,-87.5561,1.599,5.3,1111122 
DISL,ioos:station:DISL:PPTA:1,2013-07-04T12:00:00Z,30.2791,-87.5561,1.633,5.28,1111122 
DISL,ioos:station:DISL:PPTA:1,2013-07-04T12:30:00Z,30.2791,-87.5561,1.626,5.34,1111122 
DISL,ioos:station:DISL:PPTA:1,2013-07-04T13:00:00Z,30.2791,-87.5561,1.673,5.32,1111122 
DISL,ioos:station:DISL:PPTA:1,2013-07-04T13:30:00Z,30.2791,-87.5561,1.633,5.42,1111122 
DISL,ioos:station:DISL:PPTA:1,2013-07-04T14:00:00Z,30.2791,-87.5561,1.697,5.42,1111122 
DISL,ioos:station:DISL:PPTA:1,2013-07-04T14:30:00Z,30.2791,-87.5561,1.66,5.59,1111122 
DISL,ioos:station:DISL:PPTA:1,2013-07-04T15:00:00Z,30.2791,-87.5561,1.635,5.31,1111122 
DISL,ioos:station:DISL:PPTA:1,2013-07-04T15:30:00Z,30.2791,-87.5561,1.639,6.27,1111122 
DISL,ioos:station:DISL:PPTA:1,2013-07-04T16:00:00Z,30.2791,-87.5561,1.617,5.81,1111122 
DISL,ioos:station:DISL:PPTA:1,2013-07-04T16:30:00Z,30.2791,-87.5561,1.608,6.04,1111122 
DISL,ioos:station:DISL:PPTA:1,2013-07-04T17:00:00Z,30.2791,-87.5561,1.601,6.1,1111122 
DISL,ioos:station:DISL:PPTA:1,2013-07-04T17:30:00Z,30.2791,-87.5561,1.601,6.53,1111122 
DISL,ioos:station:DISL:PPTA:1,2013-07-04T18:00:00Z,30.2791,-87.5561,1.574,6.59,1111122 
DISL,ioos:station:DISL:PPTA:1,2013-07-04T18:30:00Z,30.2791,-87.5561,1.571,6.46,1111122 
DISL,ioos:station:DISL:PPTA:1,2013-07-04T19:00:00Z,30.2791,-87.5561,1.532,6.52,1111122 
DISL,ioos:station:DISL:PPTA:1,2013-07-04T19:30:00Z,30.2791,-87.5561,1.508,6.61,1111122 
DISL,ioos:station:DISL:PPTA:1,2013-07-04T20:00:00Z,30.2791,-87.5561,1.499,6.08,1111122 
DISL,ioos:station:DISL:PPTA:1,2013-07-04T20:30:00Z,30.2791,-87.5561,1.489,6.23,1111122 
DISL,ioos:station:DISL:PPTA:1,2013-07-04T21:00:00Z,30.2791,-87.5561,1.482,6.32,1111122 
DISL,ioos:station:DISL:PPTA:1,2013-07-04T21:30:00Z,30.2791,-87.5561,1.515,6.61,1111122 
DISL,ioos:station:DISL:PPTA:1,2013-07-04T22:00:00Z,30.2791,-87.5561,1.486,6.28,1111122 
DISL,ioos:station:DISL:PPTA:1,2013-07-04T22:30:00Z,30.2791,-87.5561,1.455,6.52,1111122 
DISL,ioos:station:DISL:PPTA:1,2013-07-04T23:00:00Z,30.2791,-87.5561,1.456,6.6,1111122 
DISL,ioos:station:DISL:PPTA:1,2013-07-04T23:30:00Z,30.2791,-87.5561,1.459,6.28,1111122 
DISL,ioos:station:DISL:PPTA:1,2013-07-05T00:00:00Z,30.2791,-87.5561,1.437,6.29,1111122 
DISL,ioos:station:DISL:PPTA:1,2013-07-05T00:30:00Z,30.2791,-87.5561,1.464,6.5,1111122 
DISL,ioos:station:DISL:PPTA:1,2013-07-05T01:00:00Z,30.2791,-87.5561,1.478,6.05,1111122 
DISL,ioos:station:DISL:PPTA:1,2013-07-05T01:30:00Z,30.2791,-87.5561,1.47,6.41,1111122 
DISL,ioos:station:DISL:PPTA:1,2013-07-05T02:00:00Z,30.2791,-87.5561,1.483,5.83,1111122 
DISL,ioos:station:DISL:PPTA:1,2013-07-05T02:30:00Z,30.2791,-87.5561,1.435,5.91,1111122 
DISL,ioos:station:DISL:PPTA:1,2013-07-05T03:00:00Z,30.2791,-87.5561,1.412,5.66,1111122 
DISL,ioos:station:DISL:PPTA:1,2013-07-05T03:30:00Z,30.2791,-87.5561,1.454,5.9,1111122 
DISL,ioos:station:DISL:PPTA:1,2013-07-05T04:00:00Z,30.2791,-87.5561,1.437,5.65,1111122 
DISL,ioos:station:DISL:PPTA:1,2013-07-05T04:30:00Z,30.2791,-87.5561,1.463,5.98,1111122 
DISL,ioos:station:DISL:PPTA:1,2013-07-05T05:00:00Z,30.2791,-87.5561,1.428,5.45,1111122 
DISL,ioos:station:DISL:PPTA:1,2013-07-05T05:30:00Z,30.2791,-87.5561,1.433,5.22,1111122 
DISL,ioos:station:DISL:PPTA:1,2013-07-05T06:00:00Z,30.2791,-87.5561,1.436,5.12,1111122 
DISL,ioos:station:DISL:PPTA:1,2013-07-05T06:30:00Z,30.2791,-87.5561,1.466,5.96,1111122 
DISL,ioos:station:DISL:PPTA:1,2013-07-05T07:00:00Z,30.2791,-87.5561,1.426,6.13,1111122 
DISL,ioos:station:DISL:PPTA:1,2013-07-05T07:30:00Z,30.2791,-87.5561,1.47,5.96,1111122 
DISL,ioos:station:DISL:PPTA:1,2013-07-05T08:00:00Z,30.2791,-87.5561,1.507,5.96,1111122 
DISL,ioos:station:DISL:PPTA:1,2013-07-05T08:30:00Z,30.2791,-87.5561,1.522,5.91,1111122 
DISL,ioos:station:DISL:PPTA:1,2013-07-05T09:00:00Z,30.2791,-87.5561,1.521,5.84,1111122 
DISL,ioos:station:DISL:PPTA:1,2013-07-05T09:30:00Z,30.2791,-87.5561,1.52,5.62,1111122 
DISL,ioos:station:DISL:PPTA:1,2013-07-05T10:00:00Z,30.2791,-87.5561,1.541,5.94,1111122 
DISL,ioos:station:DISL:PPTA:1,2013-07-05T10:30:00Z,30.2791,-87.5561,1.546,5.8,1111122 
DISL,ioos:station:DISL:PPTA:1,2013-07-05T11:00:00Z,30.2791,-87.5561,1.601,5.84,1111122 
DISL,ioos:station:DISL:PPTA:1,2013-07-05T11:30:00Z,30.2791,-87.5561,1.597,5.92,1111122 
DISL,ioos:station:DISL:PPTA:1,2013-07-05T12:00:00Z,30.2791,-87.5561,1.582,5.86,1111122 
DISL,ioos:station:DISL:PPTA:1,2013-07-05T12:30:00Z,30.2791,-87.5561,1.599,5.8,1111122 
DISL,ioos:station:DISL:PPTA:1,2013-07-05T13:00:00Z,30.2791,-87.5561,1.599,5.67,1111122 
DISL,ioos:station:DISL:PPTA:1,2013-07-05T13:30:00Z,30.2791,-87.5561,1.633,5.86,1111122 
DISL,ioos:station:DISL:PPTA:1,2013-07-05T14:00:00Z,30.2791,-87.5561,1.628,5.65,1111122 
DISL,ioos:station:DISL:PPTA:1,2013-07-05T14:30:00Z,30.2791,-87.5561,1.603,5.7,1111122 
DISL,ioos:station:DISL:PPTA:1,2013-07-05T15:00:00Z,30.2791,-87.5561,1.612,5.83,1111122 
DISL,ioos:station:DISL:PPTA:1,2013-07-05T15:30:00Z,30.2791,-87.5561,1.621,5.73,1111122 
DISL,ioos:station:DISL:PPTA:1,2013-07-05T16:00:00Z,30.2791,-87.5561,1.58,5.75,1111122 
DISL,ioos:station:DISL:PPTA:1,2013-07-05T16:30:00Z,30.2791,-87.5561,1.587,5.65,1111122 
DISL,ioos:station:DISL:PPTA:1,2013-07-05T17:00:00Z,30.2791,-87.5561,1.551,5.7,1111122 
DISL,ioos:station:DISL:PPTA:1,2013-07-05T17:30:00Z,30.2791,-87.5561,1.514,5.21,1111122 
DISL,ioos:station:DISL:PPTA:1,2013-07-05T18:00:00Z,30.2791,-87.5561,1.52,5.42,1111122 
DISL,ioos:station:DISL:PPTA:1,2013-07-05T18:30:00Z,30.2791,-87.5561,1.482,5.71,1111122 
DISL,ioos:station:DISL:PPTA:1,2013-07-05T19:00:00Z,30.2791,-87.5561,1.481,5.36,1111122 
DISL,ioos:station:DISL:PPTA:1,2013-07-05T19:30:00Z,30.2791,-87.5561,1.467,5.54,1111122 
DISL,ioos:station:DISL:PPTA:1,2013-07-05T20:00:00Z,30.2791,-87.5561,1.424,5.97,1111122 
DISL,ioos:station:DISL:PPTA:1,2013-07-05T20:30:00Z,30.2791,-87.5561,1.425,6.16,1111122 
DISL,ioos:station:DISL:PPTA:1,2013-07-05T21:00:00Z,30.2791,-87.5561,1.377,6.13,1111122 
DISL,ioos:station:DISL:PPTA:1,2013-07-05T21:30:00Z,30.2791,-87.5561,1.41,6.04,1111122 
DISL,ioos:station:DISL:PPTA:1,2013-07-05T22:00:00Z,30.2791,-87.5561,1.389,6.14,1111122 
DISL,ioos:station:DISL:PPTA:1,2013-07-05T22:30:00Z,30.2791,-87.5561,1.379,6.19,1111122 
DISL,ioos:station:DISL:PPTA:1,2013-07-05T23:00:00Z,30.2791,-87.5561,1.366,6.2,1111122 
DISL,ioos:station:DISL:PPTA:1,2013-07-05T23:30:00Z,30.2791,-87.5561,1.328,6.26,1111122 
DISL,ioos:station:DISL:PPTA:1,2013-07-06T00:00:00Z,30.2791,-87.5561,1.313,6.24,1111122 
DISL,ioos:station:DISL:PPTA:1,2013-07-06T00:30:00Z,30.2791,-87.5561,1.319,6.13,1111122 
DISL,ioos:station:DISL:PPTA:1,2013-07-06T01:00:00Z,30.2791,-87.5561,1.322,6.12,1111122 
DISL,ioos:station:DISL:PPTA:1,2013-07-06T01:30:00Z,30.2791,-87.5561,1.298,6.05,1111122 
DISL,ioos:station:DISL:PPTA:1,2013-07-06T02:00:00Z,30.2791,-87.5561,1.313,5.84,1111122 
DISL,ioos:station:DISL:PPTA:1,2013-07-06T02:30:00Z,30.2791,-87.5561,1.304,6.09,1111122 
DISL,ioos:station:DISL:PPTA:1,2013-07-06T03:00:00Z,30.2791,-87.5561,1.324,5.87,1111122 
DISL,ioos:station:DISL:PPTA:1,2013-07-06T03:30:00Z,30.2791,-87.5561,1.344,5.12,1111122 
DISL,ioos:station:DISL:PPTA:1,2013-07-06T04:00:00Z,30.2791,-87.5561,1.336,5.5,1111122 
DISL,ioos:station:DISL:PPTA:1,2013-07-06T04:30:00Z,30.2791,-87.5561,1.339,4.75,1111122 
DISL,ioos:station:DISL:PPTA:1,2013-07-06T05:00:00Z,30.2791,-87.5561,1.378,4.15,1111122 
DISL,ioos:station:DISL:PPTA:1,2013-07-06T05:30:00Z,30.2791,-87.5561,1.394,4.74,1111122 
DISL,ioos:station:DISL:PPTA:1,2013-07-06T06:00:00Z,30.2791,-87.5561,1.43,5.03,1111122 
DISL,ioos:station:DISL:PPTA:1,2013-07-06T06:30:00Z,30.2791,-87.5561,1.374,3.96,1111122 
DISL,ioos:station:DISL:PPTA:1,2013-07-06T07:00:00Z,30.2791,-87.5561,1.308,3.94,1111122 
DISL,ioos:station:DISL:PPTA:1,2013-07-06T07:30:00Z,30.2791,-87.5561,1.352,5.72,1111122 
DISL,ioos:station:DISL:PPTA:1,2013-07-06T08:00:00Z,30.2791,-87.5561,1.39,5.38,1111122 
DISL,ioos:station:DISL:PPTA:1,2013-07-06T08:30:00Z,30.2791,-87.5561,1.428,5.49,1111122 
DISL,ioos:station:DISL:PPTA:1,2013-07-06T09:00:00Z,30.2791,-87.5561,1.453,5.48,1111122 
DISL,ioos:station:DISL:PPTA:1,2013-07-06T09:30:00Z,30.2791,-87.5561,1.468,5.32,1111122 
DISL,ioos:station:DISL:PPTA:1,2013-07-06T10:00:00Z,30.2791,-87.5561,1.473,5.41,1111122 
DISL,ioos:station:DISL:PPTA:1,2013-07-06T10:30:00Z,30.2791,-87.5561,1.491,5.16,1111122 
DISL,ioos:station:DISL:PPTA:1,2013-07-06T11:00:00Z,30.2791,-87.5561,1.51,5.02,1111122 
DISL,ioos:station:DISL:PPTA:1,2013-07-06T11:30:00Z,30.2791,-87.5561,1.527,5.27,1111122 
DISL,ioos:station:DISL:PPTA:1,2013-07-06T12:00:00Z,30.2791,-87.5561,1.54,5.09,1111122 
DISL,ioos:station:DISL:PPTA:1,2013-07-06T12:30:00Z,30.2791,-87.5561,1.566,5.21,1111122 
DISL,ioos:station:DISL:PPTA:1,2013-07-06T13:00:00Z,30.2791,-87.5561,1.602,5.1,1111122 
DISL,ioos:station:DISL:PPTA:1,2013-07-06T13:30:00Z,30.2791,-87.5561,1.598,5.05,1111122 
DISL,ioos:station:DISL:PPTA:1,2013-07-06T14:00:00Z,30.2791,-87.5561,1.524,5.23,1111122 
DISL,ioos:station:DISL:PPTA:1,2013-07-06T14:30:00Z,30.2791,-87.5561,1.542,4.88,1111122 
DISL,ioos:station:DISL:PPTA:1,2013-07-06T15:00:00Z,30.2791,-87.5561,1.567,5.34,1111122 
DISL,ioos:station:DISL:PPTA:1,2013-07-06T15:30:00Z,30.2791,-87.5561,1.543,5.68,1111122 